Tracking 27371 objects as of 7-Jun-2023
HD Live streaming from Space Station
objects crossing your sky now

BREEZE-M R/B

Track BREEZE-M R/B now!


NORAD ID: 38099
Int'l Code: 2012-011B
Perigee: 2,188.5 km
Apogee: 63,481.3 km
Inclination: 29.2 °
Period: 1,287.6 minutes
Semi major axis: 39205 km
RCS: 1.5849 m2 (large)
Launch date: March 25, 2012
Source: Commonwealth of Independent States (former USSR) (CIS)
Launch site: TYURATAM MISSILE AND SPACE COMPLEX (TTMTR)

Note: This is a ROCKET BODY
Your satellite tracking list
Your tracking list is empty




NASA's NSSDC Master Catalog

Two Line Element Set (TLE):
1 38099U 12011B   23157.56853853 -.00000293  00000-0  00000-0 0  9990
2 38099  29.2261 294.5187 7816774 161.6471 263.8161  1.11834341 45591
Source of the keplerian elements: AFSPC